DELTA 1 DEB, 42647

Orbit data source: Space-Track

DELTA 1 DEB, 42647 is space debris in SSO originally from a launch on Thu, 12 Jun 1975 UTC launched from the Air Force Western Test Range (AFWTR). Debris objects in space refer to the collection of defunct objects orbiting the Earth. Examples of debris include non-operational satellites, rocket bodies, and fragments generated from explosions, collisions, or faulty payload assembly.

Loading next visibility...
Identifier
42647, 1975-052MG
Orbit
SSO
Country
Flag of USUS
Related business
Manufacturer
Unknown
Mission
Spacecraft
Bus & Motor
Unknown
Mass
Unknown
Launch date (UTC)
1975-06-12 (51 years ago)
Launch vehicle
Unknown
Launch site
Air Force Western Test Range (AFWTR)
Object type
Payload
Rocket body
Debris
Shape & HBR
Unknown shape, 0.1 m
Radar Cross Section
Small (<0.1 m²)

Expand to show TLE details & history
Last TLE update: 3 days ago

TLE from 3 days ago
0 DELTA 1 DEB
1 42647U 75052MG  26124.14633771  .00000020  00000-0  12535-3 0  9990
2 42647  99.7362 277.4866 0065842  48.5379 312.1375 13.32595100 77782
Epoch: 2026-05-04T03:30Z
TLE epoch observation values (Epoch: 2026-05-04T03:30:43.578Z)
Latitude
0.00008°
Longitude
2.76529°
Altitude
1,106.728 km
Speed
7.315 km/s
True Right ascension
18h 29m 56s
True Declination
0° 00' 00"
Sunlit
Object was in full shadow at epoch
Visualization orbit readout
Latitude
Unknown
Longitude
Unknown
Altitude
Unknown
Speed
Unknown
Apparent Right ascension
Unknown
Apparent Declination
Unknown
Sunlit
N/A
Visualization observer readout
Local Sidereal Time
20:06:09
Azimuth
Unknown
Elevation
Unknown
Doppler factor
Unknown
Orbital elements
Apogee altitude
1,183.781 km
Perigee altitude
1,084.854 km
Semi-major axis
7,512.454 km
Eccentricity
0.00658
Inclination
99.7362°
RAAN
277.4866°
Arg. of periapsis
48.5379°
True anomaly
311.57492°
Mean anomaly
312.1375°
Eccentric anomaly
311.85652°
Mean motion
3.33327 °/min
Orbital period
108 mins
BSTAR
0.00012535
Loading maneuver chart data...
Computing Atmospheric mass density...

Documentation

Showing up to 5 results
|